Hourly Weather Dziemiany

Today, 12 May, Wednesday

Time Temperature Precipitation Wind Pressure Humidity
00:00 +17°C° 0 mm 5 mps 740 mmHg 78%
01:00 +16°C° 0 mm 5 mps 740 mmHg 78%
02:00 +16°C° 0 mm 5 mps 740 mmHg 80%
03:00 +15°C° 0 mm 4 mps 740 mmHg 81%
04:00 +15°C° 0 mm 4 mps 739 mmHg 83%
05:00 +17°C° 0 mm 4 mps 740 mmHg 79%
06:00 +16°C° 0 mm 5 mps 740 mmHg 74%
07:00 +17°C° 0 mm 5 mps 740 mmHg 70%
08:00 +20°C° 0 mm 5 mps 740 mmHg 65%
09:00 +22°C° 0 mm 5 mps 740 mmHg 61%
10:00 +23°C° 0 mm 5 mps 740 mmHg 56%
11:00 +25°C° 0 mm 5 mps 740 mmHg 54%
12:00 +26°C° 0 mm 5 mps 740 mmHg 53%
13:00 +26°C° 0 mm 5 mps 740 mmHg 51%
14:00 +26°C° 0.2 mm 5 mps 740 mmHg 54%
15:00 +25°C° 0.2 mm 5 mps 740 mmHg 57%
16:00 +23°C° 0.2 mm 5 mps 740 mmHg 60%
17:00 +22°C° 0.1 mm 4 mps 740 mmHg 63%
18:00 +21°C° 0.1 mm 4 mps 740 mmHg 67%
19:00 +20°C° 0.1 mm 4 mps 740 mmHg 70%
20:00 +19°C° 0 mm 4 mps 740 mmHg 74%
21:00 +18°C° 0 mm 4 mps 740 mmHg 78%
22:00 +15°C° 0 mm 4 mps 740 mmHg 82%
23:00 +14°C° 0 mm 4 mps 740 mmHg 83%

Tomorrow, 13 May, Thursday

Time Temperature Precipitation Wind Pressure Humidity
00:00 +13°C° 0 mm 4 mps 740 mmHg 83%
01:00 +13°C° 0 mm 3 mps 740 mmHg 83%
02:00 +12°C° 0 mm 3 mps 739 mmHg 83%
03:00 +11°C° 0 mm 3 mps 739 mmHg 83%
04:00 +10°C° 0 mm 3 mps 739 mmHg 84%
05:00 +11°C° 0 mm 3 mps 738 mmHg 78%
06:00 +12°C° 0 mm 4 mps 738 mmHg 71%
07:00 +13°C° 0 mm 4 mps 738 mmHg 65%
08:00 +15°C° 0 mm 4 mps 738 mmHg 57%
09:00 +17°C° 0 mm 4 mps 738 mmHg 50%
10:00 +19°C° 0 mm 4 mps 737 mmHg 42%
11:00 +19°C° 0 mm 4 mps 737 mmHg 40%
12:00 +20°C° 0 mm 4 mps 736 mmHg 39%
13:00 +20°C° 0 mm 4 mps 736 mmHg 37%
14:00 +20°C° 0 mm 4 mps 736 mmHg 40%
15:00 +20°C° 0 mm 5 mps 736 mmHg 44%
16:00 +19°C° 0 mm 5 mps 735 mmHg 47%
17:00 +18°C° 0 mm 4 mps 735 mmHg 55%
18:00 +15°C° 0 mm 4 mps 735 mmHg 63%
19:00 +14°C° 0 mm 3 mps 735 mmHg 72%
20:00 +13°C° 0 mm 3 mps 735 mmHg 76%
21:00 +12°C° 0 mm 2 mps 735 mmHg 80%
22:00 +10°C° 0 mm 2 mps 735 mmHg 85%
23:00 +10°C° 0 mm 2 mps 735 mmHg 86%

Day after tomorrow, 14 May, Friday

Time Temperature Precipitation Wind Pressure Humidity
00:00 +10°C° 0 mm 1 mps 735 mmHg 88%
01:00 +10°C° 0 mm 1 mps 735 mmHg 90%
02:00 +10°C° 0 mm 1 mps 735 mmHg 90%
03:00 +10°C° 0 mm 1 mps 735 mmHg 90%
04:00 +10°C° 0 mm 1 mps 735 mmHg 91%
05:00 +11°C° 0 mm 1 mps 735 mmHg 85%
06:00 +12°C° 0 mm 1 mps 735 mmHg 79%
07:00 +13°C° 0 mm 1 mps 735 mmHg 73%
08:00 +14°C° 0.1 mm 1 mps 735 mmHg 70%
09:00 +15°C° 0.1 mm 1 mps 736 mmHg 67%
10:00 +16°C° 0.1 mm 2 mps 736 mmHg 64%
11:00 +16°C° 0.3 mm 2 mps 736 mmHg 65%
12:00 +16°C° 0.3 mm 3 mps 736 mmHg 66%
13:00 +15°C° 0.3 mm 4 mps 736 mmHg 67%
14:00 +15°C° 0.3 mm 4 mps 736 mmHg 72%
15:00 +14°C° 0.3 mm 4 mps 737 mmHg 77%
16:00 +13°C° 0.3 mm 4 mps 737 mmHg 82%
17:00 +12°C° 0.1 mm 3 mps 737 mmHg 83%
18:00 +11°C° 0.1 mm 3 mps 738 mmHg 85%
19:00 +11°C° 0.1 mm 3 mps 738 mmHg 87%
20:00 +10°C° 0 mm 3 mps 738 mmHg 87%
21:00 +10°C° 0 mm 3 mps 738 mmHg 88%
22:00 +9°C° 0 mm 2 mps 738 mmHg 88%
23:00 +9°C° 0 mm 2 mps 739 mmHg 88%

15 May, Saturday

Time Temperature Precipitation Wind Pressure Humidity
00:00 +9°C° 0 mm 2 mps 739 mmHg 89%
01:00 +8°C° 0 mm 2 mps 739 mmHg 89%
02:00 +8°C° 0.2 mm 2 mps 739 mmHg 91%
03:00 +8°C° 0.2 mm 2 mps 739 mmHg 92%
04:00 +8°C° 0.2 mm 2 mps 739 mmHg 93%
05:00 +8°C° 0.1 mm 2 mps 739 mmHg 93%
06:00 +8°C° 0.1 mm 2 mps 739 mmHg 94%
07:00 +8°C° 0.1 mm 2 mps 739 mmHg 94%
08:00 +8°C° 0 mm 2 mps 740 mmHg 93%
09:00 +9°C° 0 mm 2 mps 740 mmHg 91%
10:00 +9°C° 0 mm 3 mps 740 mmHg 90%
11:00 +10°C° 0 mm 3 mps 740 mmHg 86%
12:00 +11°C° 0 mm 3 mps 741 mmHg 81%
13:00 +12°C° 0 mm 3 mps 741 mmHg 77%
14:00 +13°C° 0 mm 3 mps 741 mmHg 69%
15:00 +14°C° 0 mm 3 mps 740 mmHg 62%
16:00 +16°C° 0 mm 3 mps 740 mmHg 54%
17:00 +15°C° 0 mm 2 mps 740 mmHg 59%
18:00 +14°C° 0 mm 2 mps 741 mmHg 65%
19:00 +13°C° 0 mm 2 mps 741 mmHg 70%
20:00 +10°C° 0 mm 2 mps 741 mmHg 76%
21:00 +10°C° 0 mm 1 mps 741 mmHg 83%
22:00 +9°C° 0 mm 1 mps 741 mmHg 89%
23:00 +9°C° 0 mm 1 mps 741 mmHg 91%

16 May, Sunday

Time Temperature Precipitation Wind Pressure Humidity
00:00 +8°C° 0 mm 1 mps 742 mmHg 93%
01:00 +8°C° 0 mm 1 mps 742 mmHg 95%
02:00 +8°C° 0 mm 1 mps 742 mmHg 95%
03:00 +7°C° 0 mm 2 mps 742 mmHg 95%
04:00 +7°C° 0 mm 2 mps 742 mmHg 95%
05:00 +9°C° 0 mm 2 mps 742 mmHg 88%
06:00 +10°C° 0 mm 2 mps 742 mmHg 80%
07:00 +13°C° 0 mm 2 mps 742 mmHg 72%
08:00 +15°C° 0.1 mm 2 mps 742 mmHg 67%
09:00 +16°C° 0.1 mm 3 mps 742 mmHg 62%
10:00 +17°C° 0.1 mm 3 mps 742 mmHg 57%
11:00 +17°C° 0.4 mm 3 mps 742 mmHg 60%
12:00 +17°C° 0.4 mm 3 mps 742 mmHg 63%
13:00 +17°C° 0.4 mm 3 mps 742 mmHg 66%
14:00 +16°C° 0.4 mm 3 mps 741 mmHg 72%
15:00 +14°C° 0.4 mm 3 mps 741 mmHg 78%
16:00 +13°C° 0.4 mm 3 mps 741 mmHg 84%
17:00 +13°C° 0.3 mm 2 mps 741 mmHg 87%
18:00 +13°C° 0.3 mm 2 mps 741 mmHg 90%
19:00 +12°C° 0.3 mm 2 mps 741 mmHg 93%
20:00 +12°C° 2.4 mm 2 mps 740 mmHg 95%
21:00 +12°C° 2.4 mm 2 mps 740 mmHg 96%
22:00 +12°C° 2.4 mm 1 mps 740 mmHg 98%
23:00 +12°C° 1.5 mm 1 mps 740 mmHg 98%

17 May, Monday

Time Temperature Precipitation Wind Pressure Humidity
00:00 +12°C° 1.5 mm 1 mps 740 mmHg 98%
01:00 +12°C° 1.5 mm 1 mps 739 mmHg 98%
02:00 +12°C° 0.2 mm 1 mps 739 mmHg 98%
03:00 +12°C° 0.2 mm 1 mps 739 mmHg 98%
04:00 +12°C° 0.2 mm 1 mps 739 mmHg 98%
05:00 +12°C° 0 mm 1 mps 739 mmHg 95%
06:00 +13°C° 0 mm 1 mps 739 mmHg 92%
07:00 +13°C° 0 mm 1 mps 739 mmHg 89%
08:00 +14°C° 0.2 mm 2 mps 739 mmHg 82%
09:00 +16°C° 0.2 mm 2 mps 739 mmHg 75%
10:00 +17°C° 0.2 mm 3 mps 738 mmHg 68%
11:00 +17°C° 0.4 mm 3 mps 738 mmHg 64%
12:00 +18°C° 0.4 mm 3 mps 738 mmHg 60%
13:00 +18°C° 0.4 mm 3 mps 738 mmHg 57%
14:00 +18°C° 0.3 mm 3 mps 738 mmHg 57%
15:00 +18°C° 0.3 mm 3 mps 739 mmHg 57%
16:00 +18°C° 0.3 mm 3 mps 739 mmHg 58%
17:00 +17°C° 0.4 mm 2 mps 739 mmHg 66%
18:00 +15°C° 0.4 mm 2 mps 739 mmHg 75%
19:00 +14°C° 0.4 mm 2 mps 739 mmHg 83%
20:00 +13°C° 0.1 mm 2 mps 739 mmHg 87%
21:00 +12°C° 0.1 mm 1 mps 740 mmHg 91%
22:00 +11°C° 0.1 mm 1 mps 740 mmHg 95%
23:00 +10°C° 0 mm 1 mps 740 mmHg 95%
Show more

We Need Your Consent

Meteoprog and our Service Providers may store and access personal data such as cookies, device identifiers or other similar technologies on your device and process such data to personalise content and ads, as well as provide social media features and to analyse the traffic.

  • Store and/or access information on your device

    Cookies, device identifiers or other information can be stored or accessed on your device for the purposes indicated above.

  • Personalised ads and content, ad and content measurement, audience insights, and products development

    Ads and content can be personalised based on a profile. More data can be added to better personalise ads and content. Ad and content performance can be measured. Insights about the audience who saw the ads and content can be derived. Such data can be used to develop or improve user’s experience, systems and software.

By clicking ‘I Agree’ you will allow the use of indicated cookies, device identifiers, web beacons or other similar technologies. Your settings can be changed in the browser on your device.

For certain purposes, legitimate interests may be relied on, rather than consent. You can read more about this in our Privacy and Cookie Policy.